Fryeburg, ME

5:10 PM EDT on April 26, 2018 (GMT -0400)
Eastern Slopes Regional

Weather History for KIZG - June, 2014

Change the Weather History Date:

Saturday, June 14, 2014

  Actual Average Record
Temperature  
Mean Temperature 64 °F -  
Max Temperature 73 °F 74 °F 91 °F (2001)
Min Temperature 54 °F 48 °F 46 °F (2002)
Degree Days  
Heating Degree Days 2    
Growing Degree Days 14 (Base 50)    
Moisture  
Dew Point 56 °F    
Average Humidity 83    
Maximum Humidity 97    
Minimum Humidity 59    
Precipitation  
Precipitation 0.00 in - - ()
Sea Level Pressure  
Sea Level Pressure 29.84 in    
Wind  
Wind Speed 2 mph (NW)    
Max Wind Speed 7 mph    
Max Gust Speed -    
Visibility 10 miles    
Events      
Averages and records for this station are not official NWS values.
T = Trace of Precipitation, MM = Missing Value Source: NWS Daily Summary

Daily Weather History Graph

Daily Weather History Graph

Search for Another Location

Airport or City:

Astronomy

Jun. 14, 2014 Rise Set
Actual Time 5:00 AM EDT 8:27 PM EDT
Civil Twilight 4:24 AM EDT 9:04 PM EDT
Nautical Twilight 3:36 AM EDT 9:51 PM EDT
Astronomical Twilight 2:36 AM EDT 10:52 PM EDT
Moon 9:44 PM EDT (6/14) 6:44 AM EDT (6/14)
Length of Visible Light 16h 40m
Length of Day
15h 27m
Full, 97% of the Moon is Illuminated
Jun 14
Full
Jun 19
Last Quarter
Jun 27
New
Jul 5
First Quarter
Jul 12
Full

Hourly Weather History & Observations

Time (EDT) Temp. Dew Point Humidity Pressure Visibility Wind Dir Wind Speed Gust Speed Precip Events Conditions
12:46 AM 55.9 °F 54.0 °F 93% 29.84 in 10.0 mi NW 3.5 mph - N/A   Overcast
12:54 AM 55.9 °F 55.0 °F 97% 29.85 in 10.0 mi Calm Calm - N/A   Overcast
1:44 AM 55.9 °F 54.0 °F 93% 29.83 in 10.0 mi Calm Calm - 0.00 in   Overcast
1:54 AM 55.9 °F 54.0 °F 93% 29.83 in 10.0 mi NNW 3.5 mph - 0.00 in   Overcast
2:54 AM 55.9 °F 54.0 °F 93% 29.83 in 10.0 mi Calm Calm - 0.00 in   Overcast
3:05 AM 55.9 °F 54.0 °F 93% 29.82 in 10.0 mi NNW 3.5 mph - N/A   Overcast
3:35 AM 55.9 °F 54.0 °F 93% 29.81 in 10.0 mi Calm Calm - N/A   Overcast
3:54 AM 55.9 °F 54.0 °F 93% 29.82 in 10.0 mi Calm Calm - N/A   Overcast
4:39 AM 55.9 °F 54.0 °F 93% 29.82 in 10.0 mi Calm Calm - N/A   Overcast
4:54 AM 55.9 °F 54.0 °F 93% 29.82 in 10.0 mi Calm Calm - N/A   Overcast
5:45 AM 55.0 °F 54.0 °F 96% 29.82 in 10.0 mi Calm Calm - N/A   Overcast
5:54 AM 55.9 °F 54.0 °F 93% 29.82 in 10.0 mi Calm Calm - N/A   Overcast
6:44 AM 57.0 °F 55.0 °F 93% 29.82 in 10.0 mi Calm Calm - N/A   Overcast
6:54 AM 57.0 °F 55.0 °F 93% 29.83 in 10.0 mi South 3.5 mph - N/A   Overcast
7:50 AM 59.0 °F 55.4 °F 88% 29.83 in 10.0 mi South 3.5 mph - N/A   Overcast
7:54 AM 57.9 °F 55.0 °F 90% 29.84 in 10.0 mi South 3.5 mph - N/A   Overcast
8:22 AM 59.0 °F 55.0 °F 87% 29.83 in 10.0 mi Calm Calm - N/A   Overcast
8:54 AM 59.0 °F 55.0 °F 87% 29.83 in 10.0 mi Calm Calm - N/A   Overcast
9:54 AM 61.0 °F 57.0 °F 87% 29.83 in 10.0 mi Calm Calm - N/A   Overcast
10:54 AM 63.0 °F 57.9 °F 84% 29.84 in 10.0 mi Calm Calm - N/A   Overcast
11:28 AM 63.0 °F 57.0 °F 81% 29.84 in 10.0 mi Variable 3.5 mph - N/A   Overcast
11:54 AM 64.9 °F 57.9 °F 78% 29.85 in 10.0 mi Calm Calm - N/A   Overcast
12:04 PM 64.9 °F 57.9 °F 78% 29.85 in 10.0 mi Calm Calm - N/A   Overcast
12:26 PM 66.9 °F 57.9 °F 73% 29.84 in 10.0 mi Calm Calm - N/A   Mostly Cloudy
12:54 PM 69.1 °F 57.9 °F 68% 29.83 in 10.0 mi Variable 5.8 mph - N/A   Mostly Cloudy
1:37 PM 68.0 °F 59.0 °F 73% 29.83 in 10.0 mi NNE 6.9 mph - N/A   Overcast
1:54 PM 71.1 °F 60.1 °F 68% 29.83 in 10.0 mi Variable 4.6 mph - N/A   Overcast
2:12 PM 71.1 °F 60.1 °F 68% 29.82 in 10.0 mi Variable 5.8 mph - N/A   Overcast
2:54 PM 72.0 °F 57.9 °F 61% 29.83 in 10.0 mi NNE 3.5 mph - N/A   Mostly Cloudy
3:54 PM 72.0 °F 57.9 °F 61% 29.83 in 10.0 mi NE 5.8 mph - N/A   Mostly Cloudy
4:54 PM 72.0 °F 57.0 °F 59% 29.84 in 10.0 mi Calm Calm - N/A   Mostly Cloudy
5:54 PM 69.1 °F 55.0 °F 61% 29.84 in 10.0 mi WNW 3.5 mph - N/A   Overcast
6:54 PM 68.0 °F 55.9 °F 65% 29.85 in 10.0 mi NE 4.6 mph - N/A   Overcast
7:54 PM 66.9 °F 55.0 °F 66% 29.86 in 10.0 mi Calm Calm - N/A   Scattered Clouds
8:54 PM 60.1 °F 57.0 °F 90% 29.88 in 10.0 mi Calm Calm - N/A   Scattered Clouds
9:54 PM 57.9 °F 55.9 °F 93% 29.90 in 10.0 mi SW 3.5 mph - N/A   Overcast
10:54 PM 57.9 °F 54.0 °F 87% 29.90 in 10.0 mi West 3.5 mph - N/A   Overcast
11:54 PM 54.0 °F 48.9 °F 83% 29.90 in 10.0 mi WNW 3.5 mph - N/A   Clear